Location: Unspecified
(0.0000°N, 0.0000°E)
Time: 17:27:10
(UTC+00:00)

SRMSAT - Pass Details

Date: 05 June 2020
Orbit: 848 x 866 km, 20.0° (Epoch: 06 July)

Event Time Altitude Azimuth Distance (km) Brightness Sun altitude
Rises 18:22:39 0° 317° (NW) 3,388 ? -5.5°
Reaches altitude 10° 18:27:01 10° 346° (NNW) 2,452 ? -6.5°
Maximum altitude 18:29:17 12° 9° (N) 2,297 ? -7.1°
Drops below altitude 10° 18:31:33 10° 32° (NNE) 2,453 ? -7.6°
Sets 18:35:54 0° 62° (ENE) 3,390 ? -8.6°
